ABS-2

Last updated on Sun Dec 14 2025 00:02:50 GMT+0000 (Coordinated Universal Time)

1 39508U 14006A 25347.05308463 -.00000073 00000+0 00000+0 0 9995 2 39508 0.0388 82.0178 0003639 174.7957 279.2087 1.00271771 43416
UTC large
Height (km)
Speed (km/s)
/
Latitude / Longitude
Inclination (degrees)
Orbital Period (minutes)
Azimuth
Elevation
Range (km)
Doppler Factor

Next 0 passes for location: London (51.5072 / 0.1276)

Sorry there are no passes over London.